Regional Weather Roundup
Issued by NWS

Home | Current Version | Previous Version | Text Only | Print | Product List | Glossary On
Versions: 1 2 3 4 5 6 7 8 9 10 11 12 13 14 15 16 17 18 19 20 21 22 23 24 25 26 27 28 29 30 31 32 33 34 35 36 37 38 39 40 41 42 43 44 45 46 47 48 49 50
000
ASUS45 KBOU 101110
RWRCO

WEATHER ROUNDUP FOR COLORADO
NATIONAL WEATHER SERVICE DENVER/BOULDER CO
500 AM MDT THU JUL 10 2014

NOTE: "FAIR" INDICATES FEW OR NO CLOUDS BELOW 12000 FEET WITH NO
SIGNIFICANT WEATHER AND/OR OBSTRUCTIONS TO VISIBILITY.

COZ001>005-013-030-031-101200-
...NORTHWEST COLORADO...

CITY           SKY/WX    TMP DP  RH WIND       PRES   REMARKS
CRAIG          PTCLDY    48  45  89 CALM      30.18R
HAYDEN         PTCLDY    54  39  58 E9        30.20R
MEEKER         MOCLDY    55  48  77 NE5       30.19R
MOUNT WERNER   PTCLDY    55  30  38 W9        30.48S
STEAMBOAT SPGS PTCLDY    48  42  81 CALM      30.23R
WALDEN         CLEAR     50  41  71 E6        30.28R
$$

COZ006>008-011-101200-
...WEST CENTRAL VALLEYS...

CITY           SKY/WX    TMP DP  RH WIND       PRES   REMARKS
GRAND JUNCTION MOCLDY    66  49  54 CALM      30.10R
MONTROSE       CLOUDY    66  45  46 SE8       30.19R
EAGLE          PTCLDY    55  43  62 CALM      30.23S
RIFLE          PTCLDY    60  45  57 NE3       30.15R
DELTA          PTCLDY    67  46  48 NE9       30.14R
NUCLA          PTCLDY    63  50  63 SE8       30.24S
$$

COZ017>023-064>068-101200-
...SOUTHWEST COLORADO...

CITY           SKY/WX    TMP DP  RH WIND       PRES   REMARKS
DURANGO        PTCLDY    56  48  74 N3        30.25S
CORTEZ         MOCLDY    62  52  69 NE6       30.21R
PAGOSA SPRINGS PTCLDY    49  49  99 CALM      30.33F
TELLURIDE      PTCLDY    52  45  76 CALM      30.41S
WOLF CREEK PAS NOT AVBL
$$

COZ009-010-012-014-032>034-037-058>063-101200-
...CENTRAL COLORADO...

CITY           SKY/WX    TMP DP  RH WIND       PRES   REMARKS
ASPEN          PTCLDY    50  40  68 S7        30.29R
BUENA VISTA    PTCLDY    54  39  58 W5        30.30S
COPPER MTN     CLEAR     52  32  46 W8        30.59S
BERTHOUD PASS  FAIR      43  30  61 NW14      30.62S
COTTONWOOD PAS CLOUDY    59  36  41 NW5       30.42S
GUNNISON       NOT AVBL
KREMMLING      PTCLDY    50  43  76 S3        30.29S
LEADVILLE      CLEAR     41  33  73 NE6       30.42R
MONARCH PASS   PTCLDY    45  37  76 W23       30.66F
SALIDA         PTCLDY   N/A N/A N/A S10       30.32S
SUNLIGHT       PTCLDY    52  41  66 CALM      30.50F
WILKERSON PASS PTCLDY    48  37  66 W9        30.53S
$$

COZ069>075-101200-
...SAN LUIS VALLEY/SANGRE DE CRISTO MOUNTAINS...

CITY           SKY/WX    TMP DP  RH WIND       PRES   REMARKS
ALAMOSA        CLEAR     47  41  80 SW6       30.29R
LA VETA PASS   CLEAR     48  43  81 SW17G29   30.42R
SAGUACHE       NOT AVBL
$$

COZ035-036-038>040-101200-
...NORTHERN COLORADO FRONT RANGE...

CITY           SKY/WX    TMP DP  RH WIND       PRES   REMARKS
DENVER INTL AP PTCLDY    67  44  43 SW12      30.02R
DMNS CITY PARK   N/A     64  48  54 S5        30.03S
AURORA         PTCLDY    65  45  49 S8        30.05R
FRONT RANGE AP NOT AVBL
ERIE MUNI ARPT CLEAR     56  49  79 SW5       30.00S
BOULDER MUN AP CLEAR     63  45  51 SW5       30.01S
CENTENNIAL     PTCLDY    64  42  44 SE6       30.07R
BROOMFIELD     CLEAR     64  45  48 SW3       30.05S
FORT COLLINS   CLEAR     64  54  68 CALM      30.00S
LONGMONT       CLEAR     60  49  67 CALM      30.01F
$$

COZ041-046-047-076>085-087-088-101200-
...PIKES PEAK/PALMER DIVIDE AND SOUTHERN FOOTHILLS...

CITY           SKY/WX    TMP DP  RH WIND       PRES   REMARKS
COLO. SPRINGS  PTCLDY    55  48  77 N8        30.11F
A. F. ACADEMY  CLEAR     53  45  75 N6        30.13F
ELLICOTT       NOT AVBL
FALCON         CLEAR     52  47  81 W9        30.16F
FORT CARSON    CLEAR     57  47  67 NW8       30.07F
LIMON          CLEAR     61  51  70 S3        30.05R
MONUMENT HILL  CLEAR     57  43  58 SW13      30.15S
TRINIDAD       CLEAR     65  48  54 W13       30.07S
$$

COZ042>045-048>051-090-091-101200-
...NORTHEAST COLORADO...

CITY           SKY/WX    TMP DP  RH WIND       PRES   REMARKS
GREELEY ARPT   NOT AVBL
AKRON          CLEAR     65  52  62 SW12      29.98R
BURLINGTON     MOCLDY    62  60  93 SE15      30.01R FOG
WRAY           CLEAR     62  62  98 E8        29.99S
STERLING       CLEAR     63  59  88 E7        29.97R
HOLYOKE        CLOUDY    63  61  94 SE17G25   30.00R
FORT MORGAN    CLEAR     61  52  72 SW5       29.98R
$$

COZ086-089-092>099-101200-
...SOUTHEAST COLORADO...

CITY           SKY/WX    TMP DP  RH WIND       PRES   REMARKS
PUEBLO         CLEAR     61  52  72 N6        30.00R
LA JUNTA       CLEAR     65  50  58 NW6       29.95S
LAMAR          PTCLDY    62  48  60 CALM      29.91F
SPRINGFIELD      N/A     61  51  70 S8        30.00S
$$


USA.gov is the U.S. government's official web portal to all federal, state and local government web resources and services.